User: anonymous   Login
Location: Conflandey
(47.7287°N, 6.0456°E)
Time: 01:57:48
(UTC+00:00)
Language:

Iridium 4 Rocket - Orbit

View from above orbital plane
View from above orbital plane
View from above satellite
View from above satellite

Ground track
Ground track

The orbit data is extracted from the following two-line orbital elements,

1 24797U 97020F   22026.58710867  .00000206  00000-0  37406-4 0  9993
2 24797  86.8939  96.4558 0226890  99.9735  21.8539 14.44333118301004
Epoch (UTC): 26 January 2022 14:05:26
Eccentricity: 0.0226890
inclination: 86.8939°
perigee height: 582 km
apogee height: 906 km
right ascension of ascending node: 96.4558°
argument of perigee: 99.9735°
revolutions per day: 14.44333118
mean anomaly at epoch: 21.8539°
orbit number at epoch: 30100

The dashed part of the orbit path shows where the satellite is in the earth's shadow,  

DLR